Tracking 33200 objects as of 18-Feb-2026
HD Live streaming from Space Station
objects crossing your sky now

FREGAT R/B

Track FREGAT R/B now!


NORAD ID: 41033
Int'l Code: 2015-066B
Perigee: 378.8 km
Apogee: 39,767.7 km
Inclination: 62.9 °
Period: 713.3 minutes
Semi major axis: 26444 km
RCS: Unknown
Launch date: November 17, 2015
Source: Commonwealth of Independent States (former USSR) (CIS)
Launch site: PLESETSK MISSILE AND SPACE COMPLEX (PKMTR)

Note: This is a ROCKET BODY
Your satellite tracking list
Your tracking list is empty




NASA's NSSDC Master Catalog

Two Line Element Set (TLE):
1 41033U 15066B   26048.12495823 -.00000491  00000-0  40371-3 0  9996
2 41033  62.9101 330.2077 7447529 266.4731  14.6667  2.01886040 75495
Source of the keplerian elements: AFSPC